Time,TemperatureF,DewpointF,PressureIn,WindDirection,WindDirectionDegrees,WindSpeedMPH,WindSpeedGustMPH,Humidity,HourlyPrecipIn,Conditions,Clouds,dailyrainin,SoftwareType,DateUTC
2013-05-05 00:00:00,63.1,41.9,28.16,NNE,31,0.9,20.8,80,0.00,,,-99.99,HOBO +U30 +Weather +,2013-05-05 07:00:00,
2013-05-05 00:15:00,62.9,41.0,28.15,East,95,0.9,16.6,82,0.00,,,-99.99,HOBO +U30 +Weather +,2013-05-05 07:15:00,
2013-05-05 00:30:00,62.7,41.7,28.15,NNE,13,0.9,18.6,82,0.00,,,-99.99,HOBO +U30 +Weather +,2013-05-05 07:30:00,
2013-05-05 00:48:00,62.5,41.1,28.15,SE,133,0.9,4.9,84,0.00,,,-99.99,HOBO +U30 +Weather +,2013-05-05 07:48:00,
2013-05-05 01:00:00,62.3,40.9,28.15,SE,129,0.9,5.8,84,0.00,,,-99.99,HOBO +U30 +Weather +,2013-05-05 08:00:00,
2013-05-05 01:15:00,62.2,40.9,28.15,South,170,0.0,2.5,85,0.00,,,-99.99,HOBO +U30 +Weather +,2013-05-05 08:15:00,
2013-05-05 01:30:00,61.9,40.2,28.15,ENE,60,1.3,5.4,85,0.00,,,-99.99,HOBO +U30 +Weather +,2013-05-05 08:30:00,
2013-05-05 01:48:00,61.8,40.4,28.15,ENE,58,0.4,5.4,86,0.00,,,-99.99,HOBO +U30 +Weather +,2013-05-05 08:48:00,
2013-05-05 02:00:00,61.6,40.2,28.14,SSE,154,0.9,19.0,88,0.00,,,-99.99,HOBO +U30 +Weather +,2013-05-05 09:00:00,
2013-05-05 02:15:00,61.4,39.8,28.14,South,173,0.0,2.9,87,0.00,,,-99.99,HOBO +U30 +Weather +,2013-05-05 09:15:00,
2013-05-05 02:30:00,61.2,39.7,28.13,NNE,29,1.3,6.7,88,0.00,,,-99.99,HOBO +U30 +Weather +,2013-05-05 09:30:00,
2013-05-05 02:48:00,61.0,40.0,28.13,South,174,0.0,2.9,88,0.00,,,-99.99,HOBO +U30 +Weather +,2013-05-05 09:48:00,
2013-05-05 03:00:00,60.8,39.0,28.12,South,187,0.0,21.3,89,0.00,,,-99.99,HOBO +U30 +Weather +,2013-05-05 10:00:00,
2013-05-05 03:15:00,60.6,38.4,28.11,South,184,0.9,19.9,89,0.00,,,-99.99,HOBO +U30 +Weather +,2013-05-05 10:15:00,
2013-05-05 03:30:00,60.4,38.6,28.11,NNW,330,0.9,4.3,90,0.00,,,-99.99,HOBO +U30 +Weather +,2013-05-05 10:30:00,
2013-05-05 03:47:00,60.3,38.2,28.11,WSW,239,0.4,2.9,89,0.00,,,-99.99,HOBO +U30 +Weather +,2013-05-05 10:47:00,
2013-05-05 04:00:00,60.1,38.2,28.10,NE,53,0.9,4.9,89,0.00,,,-99.99,HOBO +U30 +Weather +,2013-05-05 11:00:00,
2013-05-05 04:15:00,59.9,38.0,28.10,ESE,117,1.3,5.8,91,0.00,,,-99.99,HOBO +U30 +Weather +,2013-05-05 11:15:00,
2013-05-05 04:30:00,59.7,37.6,28.10,East,80,0.9,3.8,90,0.00,,,-99.99,HOBO +U30 +Weather +,2013-05-05 11:30:00,
2013-05-05 04:48:00,59.6,37.8,28.10,ENE,66,0.9,4.3,91,0.00,,,-99.99,HOBO +U30 +Weather +,2013-05-05 11:48:00,
2013-05-05 05:00:00,59.4,38.4,28.09,NE,49,0.9,21.9,92,0.00,,,-99.99,HOBO +U30 +Weather +,2013-05-05 12:00:00,
2013-05-05 05:15:00,59.2,37.1,28.10,West,272,0.9,3.8,90,0.00,,,-99.99,HOBO +U30 +Weather +,2013-05-05 12:15:00,
2013-05-05 05:30:00,59.1,37.5,28.09,North,11,0.9,21.5,92,0.00,,,-99.99,HOBO +U30 +Weather +,2013-05-05 12:30:00,
2013-05-05 05:47:00,58.9,38.1,28.09,ENE,58,0.4,22.4,92,0.00,,,-99.99,HOBO +U30 +Weather +,2013-05-05 12:47:00,
2013-05-05 06:00:00,58.7,36.9,28.09,East,90,0.9,22.8,92,0.00,,,-99.99,HOBO +U30 +Weather +,2013-05-05 13:00:00,
2013-05-05 06:15:00,58.5,37.1,28.09,East,84,0.9,4.5,92,0.00,,,-99.99,HOBO +U30 +Weather +,2013-05-05 13:15:00,
2013-05-05 06:30:00,58.4,36.9,28.08,SW,216,2.0,25.7,92,0.00,,,-99.99,HOBO +U30 +Weather +,2013-05-05 13:30:00,
2013-05-05 06:47:00,58.2,37.5,28.09,SSW,199,2.0,5.4,92,0.00,,,-99.99,HOBO +U30 +Weather +,2013-05-05 13:47:00,
2013-05-05 07:00:00,58.1,38.6,28.09,NNE,22,2.0,6.3,91,0.00,,,-99.99,HOBO +U30 +Weather +,2013-05-05 14:00:00,
2013-05-05 07:15:00,57.9,41.4,28.09,ESE,107,1.3,4.3,88,0.00,,,-99.99,HOBO +U30 +Weather +,2013-05-05 14:15:00,
2013-05-05 07:30:00,57.8,43.4,28.09,NNE,27,1.3,21.9,84,0.00,,,-99.99,HOBO +U30 +Weather +,2013-05-05 14:30:00,
2013-05-05 07:48:00,57.6,44.3,28.08,East,80,1.6,4.3,80,0.00,,,-99.99,HOBO +U30 +Weather +,2013-05-05 14:48:00,
2013-05-05 08:00:00,57.5,43.4,28.09,ESE,108,1.3,4.5,77,0.00,,,-99.99,HOBO +U30 +Weather +,2013-05-05 15:00:00,
2013-05-05 08:15:00,57.4,45.5,28.09,NW,316,1.6,22.4,77,0.00,,,-99.99,HOBO +U30 +Weather +,2013-05-05 15:15:00,
2013-05-05 08:30:00,57.3,45.5,28.09,East,93,1.6,22.4,72,0.00,,,-99.99,HOBO +U30 +Weather +,2013-05-05 15:30:00,
2013-05-05 08:49:00,57.3,46.3,28.09,SSE,163,0.9,3.4,67,0.00,,,-99.99,HOBO +U30 +Weather +,2013-05-05 15:49:00,
2013-05-05 09:00:00,57.2,46.5,28.08,NW,314,1.3,20.8,61,0.00,,,-99.99,HOBO +U30 +Weather +,2013-05-05 16:00:00,
2013-05-05 09:15:00,57.1,45.4,28.07,WNW,292,2.5,6.3,52,0.00,,,-99.99,HOBO +U30 +Weather +,2013-05-05 16:15:00,
2013-05-05 09:30:00,57.1,44.0,28.07,WNW,295,2.9,22.8,45,0.00,,,-99.99,HOBO +U30 +Weather +,2013-05-05 16:30:00,
2013-05-05 09:48:00,57.1,43.2,28.07,WSW,256,2.5,7.2,42,0.00,,,-99.99,HOBO +U30 +Weather +,2013-05-05 16:48:00,
2013-05-05 10:00:00,57.1,44.6,28.06,WNW,300,2.9,10.3,42,0.00,,,-99.99,HOBO +U30 +Weather +,2013-05-05 17:00:00,
2013-05-05 10:15:00,57.2,42.7,28.06,WNW,284,4.3,18.6,38,0.00,,,-99.99,HOBO +U30 +Weather +,2013-05-05 17:15:00,
2013-05-05 10:30:00,57.3,43.5,28.06,NW,312,2.9,19.0,35,0.00,,,-99.99,HOBO +U30 +Weather +,2013-05-05 17:30:00,
2013-05-05 10:47:00,57.3,40.8,28.05,West,278,3.8,14.1,30,0.00,,,-99.99,HOBO +U30 +Weather +,2013-05-05 17:47:00,
2013-05-05 11:00:00,57.5,37.0,28.05,West,279,3.8,18.6,26,0.00,,,-99.99,HOBO +U30 +Weather +,2013-05-05 18:00:00,
2013-05-05 11:15:00,57.6,36.0,28.05,South,177,6.3,17.4,24,0.00,,,-99.99,HOBO +U30 +Weather +,2013-05-05 18:15:00,
2013-05-05 11:30:00,57.8,34.2,28.05,South,171,5.4,17.9,22,0.00,,,-99.99,HOBO +U30 +Weather +,2013-05-05 18:30:00,
2013-05-05 11:48:00,58.1,34.7,28.04,SSE,152,6.3,22.4,23,0.00,,,-99.99,HOBO +U30 +Weather +,2013-05-05 18:48:00,
2013-05-05 12:00:00,58.3,33.9,28.04,SE,140,7.4,15.4,22,0.00,,,-99.99,HOBO +U30 +Weather +,2013-05-05 19:00:00,
2013-05-05 12:15:00,58.6,35.0,28.03,SSE,149,7.2,20.8,22,0.00,,,-99.99,HOBO +U30 +Weather +,2013-05-05 19:15:00,
2013-05-05 12:30:00,58.9,33.9,28.02,SE,145,6.7,14.1,21,0.00,,,-99.99,HOBO +U30 +Weather +,2013-05-05 19:30:00,
2013-05-05 12:49:00,59.2,33.6,28.02,SSE,164,6.3,15.4,20,0.00,,,-99.99,HOBO +U30 +Weather +,2013-05-05 19:49:00,
2013-05-05 13:00:00,59.5,37.1,28.02,SE,139,6.3,20.4,23,0.00,,,-99.99,HOBO +U30 +Weather +,2013-05-05 20:00:00,
2013-05-05 13:15:00,59.9,33.1,28.02,SSE,147,4.9,13.0,19,0.00,,,-99.99,HOBO +U30 +Weather +,2013-05-05 20:15:00,
2013-05-05 13:30:00,60.3,33.6,28.01,ESE,112,5.4,14.5,20,0.00,,,-99.99,HOBO +U30 +Weather +,2013-05-05 20:30:00,
2013-05-05 13:48:00,60.7,33.8,28.01,SSE,163,5.4,12.1,20,0.00,,,-99.99,HOBO +U30 +Weather +,2013-05-05 20:48:00,
2013-05-05 14:00:00,61.1,30.6,28.01,SE,132,5.4,14.5,17,0.00,,,-99.99,HOBO +U30 +Weather +,2013-05-05 21:00:00,
2013-05-05 14:15:00,61.5,31.4,28.00,ESE,122,4.9,29.1,17,0.00,,,-99.99,HOBO +U30 +Weather +,2013-05-05 21:15:00,
2013-05-05 14:30:00,61.9,33.9,27.99,SSE,153,5.4,24.4,19,0.00,,,-99.99,HOBO +U30 +Weather +,2013-05-05 21:30:00,
2013-05-05 14:48:00,62.3,31.9,27.99,SSE,153,4.9,17.9,17,0.00,,,-99.99,HOBO +U30 +Weather +,2013-05-05 21:48:00,
2013-05-05 15:00:00,62.7,30.4,27.99,SE,135,4.9,11.2,17,0.00,,,-99.99,HOBO +U30 +Weather +,2013-05-05 22:00:00,
2013-05-05 15:15:00,63.2,33.6,27.99,SE,132,5.8,14.5,18,0.00,,,-99.99,HOBO +U30 +Weather +,2013-05-05 22:15:00,
2013-05-05 15:30:00,63.6,30.8,27.98,SE,145,5.4,12.5,17,0.00,,,-99.99,HOBO +U30 +Weather +,2013-05-05 22:30:00,
2013-05-05 15:48:00,64.0,30.5,27.98,SE,146,5.4,14.5,17,0.00,,,-99.99,HOBO +U30 +Weather +,2013-05-05 22:48:00,
2013-05-05 16:00:00,64.4,35.7,27.97,SSE,150,4.5,13.0,20,0.00,,,-99.99,HOBO +U30 +Weather +,2013-05-05 23:00:00,
2013-05-05 16:15:00,64.8,29.7,27.97,SE,132,4.3,11.6,15,0.00,,,-99.99,HOBO +U30 +Weather +,2013-05-05 23:15:00,
2013-05-05 16:30:00,65.2,31.2,27.96,SE,136,4.9,14.5,16,0.00,,,-99.99,HOBO +U30 +Weather +,2013-05-05 23:30:00,
2013-05-05 16:48:00,65.5,33.0,27.97,SSE,160,4.3,10.7,18,0.00,,,-99.99,HOBO +U30 +Weather +,2013-05-05 23:48:00,
2013-05-05 17:00:00,65.8,33.5,27.96,SSE,167,4.3,14.1,18,0.00,,,-99.99,HOBO +U30 +Weather +,2013-05-06 00:00:00,
2013-05-05 17:15:00,66.1,28.9,27.96,South,174,3.8,11.6,15,0.00,,,-99.99,HOBO +U30 +Weather +,2013-05-06 00:15:00,
2013-05-05 17:30:00,66.4,29.9,27.96,SE,124,2.9,8.3,15,0.00,,,-99.99,HOBO +U30 +Weather +,2013-05-06 00:30:00,
2013-05-05 17:48:00,66.7,29.9,27.95,SE,139,4.3,11.6,16,0.00,,,-99.99,HOBO +U30 +Weather +,2013-05-06 00:48:00,
2013-05-05 18:00:00,66.9,28.3,27.95,SE,125,4.5,10.1,15,0.00,,,-99.99,HOBO +U30 +Weather +,2013-05-06 01:00:00,
2013-05-05 18:15:00,67.1,29.4,27.95,ESE,112,4.9,13.2,16,0.00,,,-99.99,HOBO +U30 +Weather +,2013-05-06 01:15:00,
2013-05-05 18:30:00,67.2,30.0,27.96,SE,126,3.8,8.7,17,0.00,,,-99.99,HOBO +U30 +Weather +,2013-05-06 01:30:00,
2013-05-05 18:48:00,67.3,29.3,27.96,ESE,108,2.9,12.5,16,0.00,,,-99.99,HOBO +U30 +Weather +,2013-05-06 01:48:00,
2013-05-05 19:00:00,67.3,30.0,27.95,SE,126,4.3,7.2,17,0.00,,,-99.99,HOBO +U30 +Weather +,2013-05-06 02:00:00,
2013-05-05 19:15:00,67.4,32.3,27.96,ESE,105,2.5,21.3,19,0.00,,,-99.99,HOBO +U30 +Weather +,2013-05-06 02:15:00,
2013-05-05 19:30:00,67.3,39.4,27.96,ENE,67,0.4,3.4,26,0.00,,,-99.99,HOBO +U30 +Weather +,2013-05-06 02:30:00,
2013-05-05 19:48:00,67.3,41.1,27.96,ENE,67,1.3,2.9,34,0.00,,,-99.99,HOBO +U30 +Weather +,2013-05-06 02:48:00,
2013-05-05 20:00:00,67.2,40.2,27.97,NNE,21,2.0,25.3,37,0.00,,,-99.99,HOBO +U30 +Weather +,2013-05-06 03:00:00,
2013-05-05 20:15:00,67.1,37.7,27.97,North,11,2.0,21.9,37,0.00,,,-99.99,HOBO +U30 +Weather +,2013-05-06 03:15:00,
2013-05-05 20:30:00,67.0,38.9,27.97,NNE,22,2.0,16.6,42,0.00,,,-99.99,HOBO +U30 +Weather +,2013-05-06 03:30:00,
2013-05-05 20:47:00,66.9,40.2,27.98,NE,56,2.9,6.3,45,0.00,,,-99.99,HOBO +U30 +Weather +,2013-05-06 03:47:00,
2013-05-05 21:00:00,66.8,40.3,27.98,ENE,70,1.3,23.3,48,0.00,,,-99.99,HOBO +U30 +Weather +,2013-05-06 04:00:00,
2013-05-05 21:15:00,66.7,40.0,27.99,ENE,62,2.0,7.4,51,0.00,,,-99.99,HOBO +U30 +Weather +,2013-05-06 04:15:00,
2013-05-05 21:30:00,66.5,39.7,27.99,North,6,1.3,5.8,52,0.00,,,-99.99,HOBO +U30 +Weather +,2013-05-06 04:30:00,
2013-05-05 21:45:00,66.3,40.1,27.99,North,6,0.4,4.5,56,0.00,,,-99.99,HOBO +U30 +Weather +,2013-05-06 04:45:00,
2013-05-05 22:00:00,66.1,39.5,28.00,NNE,27,0.9,23.3,56,0.00,,,-99.99,HOBO +U30 +Weather +,2013-05-06 05:00:00,
2013-05-05 22:15:00,66.0,39.1,28.00,NNE,21,2.0,16.1,56,0.00,,,-99.99,HOBO +U30 +Weather +,2013-05-06 05:15:00,
2013-05-05 22:30:00,65.8,39.1,28.00,NNE,15,0.9,24.2,59,0.00,,,-99.99,HOBO +U30 +Weather +,2013-05-06 05:30:00,
2013-05-05 22:45:00,65.6,38.9,28.00,NNE,15,0.9,2.5,59,0.00,,,-99.99,HOBO +U30 +Weather +,2013-05-06 05:45:00,
2013-05-05 23:00:00,65.4,39.3,28.00,East,83,1.3,3.4,63,0.00,,,-99.99,HOBO +U30 +Weather +,2013-05-06 06:00:00,
2013-05-05 23:15:00,65.1,38.3,28.01,North,11,1.3,3.4,60,0.00,,,-99.99,HOBO +U30 +Weather +,2013-05-06 06:15:00,
2013-05-05 23:30:00,64.9,38.3,28.01,ENE,60,1.3,12.5,60,0.00,,,-99.99,HOBO +U30 +Weather +,2013-05-06 06:30:00,
2013-05-05 23:45:00,64.7,38.6,28.01,North,0,0.9,2.9,63,0.00,,,-99.99,HOBO +U30 +Weather +,2013-05-06 06:45:00,